Weather History for Oceana NAS, VA

Change the Weather History Date:

Saturday, December 3, 2011

  Actual Average Record
Temperature  
Mean Temperature 47 °F -  
Max Temperature 53 °F 54 °F 71 °F (2012)
Min Temperature 41 °F 37 °F 26 °F (2008)
Degree Days  
Heating Degree Days 18    
Moisture  
Dew Point 39 °F    
Average Humidity 71    
Maximum Humidity 82    
Minimum Humidity 59    
Precipitation  
Precipitation 0.00 in - - ()
Sea Level Pressure  
Sea Level Pressure 30.58 in    
Wind  
Wind Speed 10 mph (NE)    
Max Wind Speed 15 mph    
Max Gust Speed 20 mph    
Visibility 10 miles    
Events      
Averages and records for this station are not official NWS values.
T = Trace of Precipitation, MM = Missing Value Source: NWS Daily Summary

Daily Weather History Graph

Daily Weather History Graph

Search for Another Location

Airport:

Trip Planner

Search our weather history database for the weather conditions in past years. The results will help you decide how hot, cold, wet, or windy it might be!

Date:

Astronomy

Dec. 03, 2011 Rise Set
Actual Time 6:59 AM EST 4:47 PM EST
Civil Twilight 6:31 AM EST 5:16 PM EST
Nautical Twilight 5:59 AM EST 5:48 PM EST
Astronomical Twilight 5:27 AM EST 6:19 PM EST
Moon 12:43 PM EST (12/3) 12:34 AM EST (12/3)
Length of Visible Light 10h 45m
Length of Day
9h 47m
Waxing Gibbous, 62% of the Moon is Illuminated
Dec 3
Waxing Gibbous
Dec 10
Full
Dec 17
Last Quarter
Dec 24
New
Jan 1
First Quarter

Hourly Weather History & Observations

Time (EST) Temp. Windchill Dew Point Humidity Pressure Visibility Wind Dir Wind Speed Gust Speed Precip Events Conditions
12:56 AM 46.9 °F - 39.0 °F 74% 30.50 in 10.0 mi NNE 15.0 mph 19.6 mph N/A   Partly Cloudy
1:56 AM 46.9 °F - 37.0 °F 68% 30.52 in 10.0 mi NNE 13.8 mph - N/A   Partly Cloudy
2:56 AM 45.0 °F 39.7 °F 36.0 °F 71% 30.53 in 10.0 mi NNE 10.4 mph - N/A   Partly Cloudy
3:56 AM 44.1 °F 38.6 °F 36.0 °F 73% 30.54 in 10.0 mi NNE 10.4 mph - N/A   Partly Cloudy
4:56 AM 43.0 °F 38.2 °F 36.0 °F 76% 30.55 in 10.0 mi NNE 8.1 mph - N/A   Scattered Clouds
5:56 AM 41.0 °F 35.8 °F 36.0 °F 82% 30.57 in 10.0 mi North 8.1 mph - N/A   Scattered Clouds
6:56 AM 42.1 °F 37.1 °F 37.0 °F 82% 30.58 in 10.0 mi NNE 8.1 mph - N/A   Scattered Clouds
7:56 AM 45.0 °F 40.6 °F 39.9 °F 82% 30.60 in 10.0 mi NNE 8.1 mph - N/A   Partly Cloudy
8:56 AM 48.9 °F - 42.1 °F 77% 30.61 in 10.0 mi NNE 13.8 mph - N/A   Partly Cloudy
9:56 AM 51.1 °F - 42.1 °F 71% 30.63 in 10.0 mi NNE 12.7 mph - N/A   Scattered Clouds
10:56 AM 53.1 °F - 39.0 °F 59% 30.62 in 10.0 mi NE 11.5 mph - N/A   Scattered Clouds
11:56 AM 53.1 °F - 41.0 °F 64% 30.61 in 10.0 mi NE 9.2 mph - N/A   Scattered Clouds
12:56 PM 53.1 °F - 42.1 °F 66% 30.59 in 10.0 mi NNE 10.4 mph - N/A   Mostly Cloudy
1:56 PM 51.1 °F - 39.9 °F 66% 30.58 in 10.0 mi NNE 9.2 mph - N/A   Mostly Cloudy
2:56 PM 52.0 °F - 41.0 °F 66% 30.58 in 10.0 mi NE 9.2 mph - N/A   Mostly Cloudy
3:56 PM 51.1 °F - 39.9 °F 66% 30.59 in 10.0 mi East 6.9 mph - N/A   Mostly Cloudy
4:56 PM 50.0 °F - 37.9 °F 63% 30.59 in 10.0 mi ENE 4.6 mph - N/A   Mostly Cloudy
5:56 PM 48.9 °F - 37.9 °F 66% 30.60 in 10.0 mi NE 5.8 mph - N/A   Mostly Cloudy
6:56 PM 48.0 °F - 37.9 °F 68% 30.60 in 10.0 mi East 6.9 mph - N/A   Mostly Cloudy
7:56 PM 48.0 °F - 37.9 °F 68% 30.60 in 10.0 mi ESE 4.6 mph - N/A   Mostly Cloudy
8:56 PM 48.9 °F - 39.0 °F 69% 30.59 in 10.0 mi East 5.8 mph - N/A   Mostly Cloudy
9:56 PM 45.0 °F - 37.9 °F 76% 30.58 in 10.0 mi Calm Calm - N/A   Mostly Cloudy
10:56 PM 44.1 °F - 37.9 °F 79% 30.58 in 10.0 mi Calm Calm - N/A   Mostly Cloudy
11:56 PM 44.1 °F 41.5 °F 39.0 °F 82% 30.57 in 10.0 mi NE 4.6 mph - N/A   Mostly Cloudy